Time,TemperatureF,DewpointF,PressureIn,WindDirection,WindDirectionDegrees,WindSpeedMPH,WindSpeedGustMPH,Humidity,HourlyPrecipIn,Conditions,Clouds,dailyrainin,SoftwareType,DateUTC
2013-07-12 00:02:00,56.0,50.0,-100.00,SSW,205,5.0,17.0,79,0.00,,,0.00,,2013-07-12 07:02:00,
2013-07-12 00:12:00,56.0,50.0,-100.00,SSW,205,5.0,17.0,79,0.00,,,0.00,,2013-07-12 07:12:00,
2013-07-12 00:43:00,55.0,49.0,-100.00,SW,226,6.0,21.0,81,0.00,,,0.00,,2013-07-12 07:43:00,
2013-07-12 00:52:00,55.0,49.0,-100.00,SW,226,6.0,21.0,81,0.00,,,0.00,,2013-07-12 07:52:00,
2013-07-12 01:01:00,55.0,49.0,-100.00,SW,226,6.0,21.0,81,0.00,,,0.00,,2013-07-12 08:01:00,
2013-07-12 01:11:00,55.0,49.0,-100.00,SW,226,6.0,21.0,81,0.00,,,0.00,,2013-07-12 08:11:00,
2013-07-12 01:42:00,56.0,50.0,-100.00,South,184,7.0,17.0,79,0.00,,,0.00,,2013-07-12 08:42:00,
2013-07-12 01:53:00,56.0,50.0,-100.00,South,184,7.0,17.0,79,0.00,,,0.00,,2013-07-12 08:53:00,
2013-07-12 02:02:00,56.0,50.0,-100.00,South,184,7.0,17.0,79,0.00,,,0.00,,2013-07-12 09:02:00,
2013-07-12 02:12:00,56.0,50.0,-100.00,South,184,7.0,17.0,79,0.00,,,0.00,,2013-07-12 09:12:00,
2013-07-12 02:43:00,54.0,48.0,-100.00,SSE,155,6.0,16.0,81,0.00,,,-99.99,,2013-07-12 09:43:00,
2013-07-12 02:52:00,54.0,48.0,-100.00,SSE,155,6.0,16.0,81,0.00,,,-99.99,,2013-07-12 09:52:00,
2013-07-12 03:01:00,54.0,48.0,-100.00,SSE,155,6.0,16.0,81,0.00,,,-99.99,,2013-07-12 10:01:00,
2013-07-12 03:11:00,54.0,48.0,-100.00,SSE,155,6.0,16.0,81,0.00,,,-99.99,,2013-07-12 10:11:00,
2013-07-12 03:42:00,51.0,48.0,-100.00,NE,53,2.0,8.0,88,0.00,,,0.00,,2013-07-12 10:42:00,
2013-07-12 03:52:00,51.0,48.0,-100.00,NE,53,2.0,8.0,88,0.00,,,0.00,,2013-07-12 10:52:00,
2013-07-12 04:02:00,51.0,48.0,-100.00,NE,53,2.0,8.0,88,0.00,,,0.00,,2013-07-12 11:02:00,
2013-07-12 04:11:00,51.0,48.0,-100.00,NE,53,2.0,8.0,88,0.00,,,0.00,,2013-07-12 11:11:00,
2013-07-12 04:43:00,51.0,48.0,-100.00,WSW,243,5.0,6.0,90,0.00,,,0.00,,2013-07-12 11:43:00,
2013-07-12 04:53:00,51.0,48.0,-100.00,WSW,243,5.0,6.0,90,0.00,,,0.00,,2013-07-12 11:53:00,
2013-07-12 05:01:00,51.0,48.0,-100.00,WSW,243,5.0,6.0,90,0.00,,,0.00,,2013-07-12 12:01:00,
2013-07-12 05:11:00,51.0,48.0,-100.00,WSW,243,5.0,6.0,90,0.00,,,0.00,,2013-07-12 12:11:00,
2013-07-12 05:43:00,50.0,47.0,-100.00,SW,232,6.0,10.0,89,0.00,,,0.00,,2013-07-12 12:43:00,
2013-07-12 05:52:00,50.0,47.0,-100.00,SW,232,6.0,10.0,89,0.00,,,0.00,,2013-07-12 12:52:00,
2013-07-12 06:01:00,50.0,47.0,-100.00,SW,232,6.0,10.0,89,0.00,,,0.00,,2013-07-12 13:01:00,
2013-07-12 06:11:00,50.0,47.0,-100.00,SW,232,6.0,10.0,89,0.00,,,0.00,,2013-07-12 13:11:00,
2013-07-12 06:43:00,50.0,46.0,-100.00,West,262,4.0,8.0,87,0.00,,,0.00,,2013-07-12 13:43:00,
2013-07-12 06:53:00,50.0,46.0,-100.00,West,262,4.0,8.0,87,0.00,,,0.00,,2013-07-12 13:53:00,
2013-07-12 07:02:00,50.0,46.0,-100.00,West,262,4.0,8.0,87,0.00,,,0.00,,2013-07-12 14:02:00,
2013-07-12 07:11:00,50.0,46.0,-100.00,West,262,4.0,8.0,87,0.00,,,0.00,,2013-07-12 14:11:00,
2013-07-12 07:44:00,52.0,47.0,-100.00,WSW,243,4.0,6.0,83,0.00,,,0.00,,2013-07-12 14:44:00,
2013-07-12 07:53:00,52.0,47.0,-100.00,WSW,243,4.0,6.0,83,0.00,,,0.00,,2013-07-12 14:53:00,
2013-07-12 08:01:00,52.0,47.0,-100.00,WSW,243,4.0,6.0,83,0.00,,,0.00,,2013-07-12 15:01:00,
2013-07-12 08:11:00,52.0,47.0,-100.00,WSW,243,4.0,6.0,83,0.00,,,0.00,,2013-07-12 15:11:00,
2013-07-12 08:43:00,56.0,47.0,-100.00,West,265,2.0,10.0,73,0.00,,,0.00,,2013-07-12 15:43:00,
2013-07-12 08:53:00,56.0,47.0,-100.00,West,265,2.0,10.0,73,0.00,,,0.00,,2013-07-12 15:53:00,
2013-07-12 09:01:00,56.0,47.0,-100.00,West,265,2.0,10.0,73,0.00,,,0.00,,2013-07-12 16:01:00,
2013-07-12 09:11:00,56.0,47.0,-100.00,West,265,2.0,10.0,73,0.00,,,0.00,,2013-07-12 16:11:00,
2013-07-12 09:43:00,61.0,49.0,-100.00,WNW,289,4.0,6.0,64,0.00,,,0.00,,2013-07-12 16:43:00,
2013-07-12 09:58:00,61.0,49.0,-100.00,WNW,289,4.0,6.0,64,0.00,,,0.00,,2013-07-12 16:58:00,
2013-07-12 10:03:00,61.0,49.0,-100.00,WNW,289,4.0,6.0,64,0.00,,,0.00,,2013-07-12 17:03:00,
2013-07-12 10:12:00,61.0,49.0,-100.00,WNW,289,4.0,6.0,64,0.00,,,0.00,,2013-07-12 17:12:00,
2013-07-12 10:47:00,64.0,49.0,-100.00,WSW,258,7.0,12.0,58,0.00,,,-99.99,,2013-07-12 17:47:00,
2013-07-12 10:55:00,64.0,49.0,-100.00,WSW,258,7.0,12.0,58,0.00,,,-99.99,,2013-07-12 17:55:00,
2013-07-12 11:03:00,64.0,49.0,-100.00,WSW,258,7.0,12.0,58,0.00,,,-99.99,,2013-07-12 18:03:00,
2013-07-12 11:12:00,64.0,49.0,-100.00,WSW,258,7.0,12.0,58,0.00,,,-99.99,,2013-07-12 18:12:00,
2013-07-12 11:50:00,69.0,49.0,-100.00,WSW,248,9.0,15.0,49,0.00,,,0.00,,2013-07-12 18:50:00,
2013-07-12 11:56:00,69.0,49.0,-100.00,WSW,248,9.0,15.0,49,0.00,,,0.00,,2013-07-12 18:56:00,
2013-07-12 12:03:00,69.0,49.0,-100.00,WSW,248,9.0,15.0,49,0.00,,,0.00,,2013-07-12 19:03:00,
2013-07-12 12:12:00,69.0,49.0,-100.00,WSW,248,9.0,15.0,49,0.00,,,0.00,,2013-07-12 19:12:00,
2013-07-12 12:47:00,72.0,49.0,-100.00,WSW,249,12.0,18.0,44,0.00,,,0.00,,2013-07-12 19:47:00,
2013-07-12 12:57:00,72.0,49.0,-100.00,WSW,249,12.0,18.0,44,0.00,,,0.00,,2013-07-12 19:57:00,
2013-07-12 13:12:00,72.0,49.0,-100.00,WSW,249,12.0,18.0,44,0.00,,,0.00,,2013-07-12 20:12:00,
2013-07-12 13:47:00,73.0,49.0,-100.00,West,261,17.0,24.0,43,0.00,,,0.00,,2013-07-12 20:47:00,
2013-07-12 13:55:00,73.0,49.0,-100.00,West,261,17.0,24.0,43,0.00,,,0.00,,2013-07-12 20:55:00,
2013-07-12 14:02:00,73.0,49.0,-100.00,West,261,17.0,24.0,43,0.00,,,0.00,,2013-07-12 21:02:00,
2013-07-12 14:12:00,73.0,49.0,-100.00,West,261,17.0,24.0,43,0.00,,,0.00,,2013-07-12 21:12:00,
2013-07-12 14:48:00,76.0,51.0,-100.00,WSW,250,18.0,27.0,41,0.00,,,0.00,,2013-07-12 21:48:00,
2013-07-12 14:57:00,76.0,51.0,-100.00,WSW,250,18.0,27.0,41,0.00,,,0.00,,2013-07-12 21:57:00,
2013-07-12 15:12:00,76.0,51.0,-100.00,WSW,250,18.0,27.0,41,0.00,,,0.00,,2013-07-12 22:12:00,
2013-07-12 15:55:00,76.0,50.0,-100.00,WSW,252,17.0,26.0,40,0.00,,,0.00,,2013-07-12 22:55:00,
2013-07-12 16:02:00,76.0,50.0,-100.00,WSW,252,17.0,26.0,40,0.00,,,0.00,,2013-07-12 23:02:00,
2013-07-12 16:12:00,76.0,50.0,-100.00,WSW,252,17.0,26.0,40,0.00,,,0.00,,2013-07-12 23:12:00,
2013-07-12 16:45:00,75.0,45.0,-100.00,WSW,249,17.0,25.0,35,0.00,,,0.00,,2013-07-12 23:45:00,
2013-07-12 17:03:00,75.0,45.0,-100.00,WSW,249,17.0,25.0,35,0.00,,,0.00,,2013-07-13 00:03:00,
2013-07-12 18:49:00,73.0,42.0,-100.00,WSW,246,17.0,22.0,33,-99.99,,,0.00,,2013-07-13 01:49:00,
2013-07-12 18:56:00,73.0,42.0,-100.00,WSW,246,17.0,22.0,33,-99.99,,,0.00,,2013-07-13 01:56:00,
2013-07-12 19:03:00,73.0,42.0,-100.00,WSW,246,17.0,22.0,33,-99.99,,,0.00,,2013-07-13 02:03:00,
2013-07-12 19:48:00,71.0,40.0,-100.00,WSW,238,12.0,21.0,32,0.00,,,0.00,,2013-07-13 02:48:00,
2013-07-12 19:55:00,71.0,40.0,-100.00,WSW,238,12.0,21.0,32,0.00,,,0.00,,2013-07-13 02:55:00,
2013-07-12 20:03:00,71.0,40.0,-100.00,WSW,238,12.0,21.0,32,0.00,,,0.00,,2013-07-13 03:03:00,
2013-07-12 20:12:00,71.0,40.0,-100.00,WSW,238,12.0,21.0,32,0.00,,,0.00,,2013-07-13 03:12:00,
2013-07-12 20:57:00,70.0,37.0,-100.00,SW,221,10.0,17.0,30,0.00,,,0.00,,2013-07-13 03:57:00,
2013-07-12 21:01:00,70.0,37.0,-100.00,SW,221,10.0,17.0,30,0.00,,,0.00,,2013-07-13 04:01:00,
2013-07-12 21:11:00,70.0,37.0,-100.00,SW,221,10.0,17.0,30,0.00,,,0.00,,2013-07-13 04:11:00,
2013-07-12 21:44:00,68.0,39.0,-100.00,SW,215,5.0,14.0,35,0.00,,,0.00,,2013-07-13 04:44:00,
2013-07-12 21:52:00,68.0,39.0,-100.00,SW,215,5.0,14.0,35,0.00,,,0.00,,2013-07-13 04:52:00,
2013-07-12 22:01:00,68.0,39.0,-100.00,SW,215,5.0,14.0,35,0.00,,,0.00,,2013-07-13 05:01:00,
2013-07-12 22:11:00,68.0,39.0,-100.00,SW,215,5.0,14.0,35,0.00,,,0.00,,2013-07-13 05:11:00,
2013-07-12 22:42:00,68.0,44.0,-100.00,South,184,6.0,13.0,42,0.00,,,0.00,,2013-07-13 05:42:00,
2013-07-12 22:52:00,68.0,44.0,-100.00,South,184,6.0,13.0,42,0.00,,,0.00,,2013-07-13 05:52:00,
2013-07-12 23:01:00,68.0,44.0,-100.00,South,184,6.0,13.0,42,0.00,,,0.00,,2013-07-13 06:01:00,
2013-07-12 23:11:00,68.0,44.0,-100.00,South,184,6.0,13.0,42,0.00,,,0.00,,2013-07-13 06:11:00,
2013-07-12 23:43:00,66.0,43.0,-100.00,South,191,3.0,12.0,43,0.00,,,0.00,,2013-07-13 06:43:00,
2013-07-12 23:52:00,66.0,43.0,-100.00,South,191,3.0,12.0,43,0.00,,,0.00,,2013-07-13 06:52:00,